[[{"header":{"parameterUnit":"m.s-1","parameterCategory":1,"la1":30.2991,"la2":30.254,"lo1":-89.0895,"lo2":-89.0444,"dy":0.0017,"dx":0.0017,"nx":28,"ny":28,"refTime":"2024-12-22T09:00:00:Z","depth":0,"parameterNumber":2,"parameterNumberName":"U-component_of_WINDS"},"data":[0,0,0,0,0,0,0,0,0,0,0,0,0,0,0,0,0,0,0,0,0,0,0,0,0,0,0,0,0,0,0,0,0,0,0,0,0,0,0,0,0,0,0,0,0,0,0,0,0,0,0,0,0,0,0,0,0,0,-1.8839,-1.8839,0,-1.8842,-1.8842,-1.8842,-1.8747,-1.8745,-1.8742,-1.874,-1.8747,-1.875,-1.8752,0,0,0,0,0,0,0,0,0,0,0,0,0,-1.8757,-1.8759,-1.8839,-1.8839,-1.884,-1.8842,-1.8842,-1.8842,-1.8748,-1.8745,-1.8742,-1.8739,-1.8746,-1.8749,-1.8752,0,0,0,0,0,0,0,0,0,0,0,0,0,-1.878,-1.8759,-1.8839,-1.8793,-1.8788,-1.8842,-1.8842,-1.8842,-1.8748,-1.8745,-1.8741,-1.8737,-1.8745,-1.8749,-1.8753,-1.8852,0,0,-1.8764,-1.8766,0,0,0,0,0,0,0,0,-1.8778,-1.8783,-1.88,-1.8796,-1.8791,-1.879,-1.8815,-1.8846,-1.8749,-1.8764,-1.874,-1.8735,-1.8765,-1.8767,-1.8776,-1.8853,-1.8853,-1.8765,-1.8767,-1.8769,-1.877,0,0,0,0,0,0,0,-1.8777,-1.8782,-1.884,-1.88,-1.8795,-1.8773,-1.8772,-1.8821,-1.8786,-1.8762,-1.8755,-1.8757,-1.8762,-1.8772,-1.8775,-1.8853,-1.8765,-1.8768,-1.877,-1.8772,-1.9013,-1.9017,0,0,0,0,0,0,-1.8781,-1.8781,-1.884,-1.8841,-1.8775,-1.8777,-1.8776,-1.8795,-1.8785,-1.878,-1.876,-1.8752,-1.8768,-1.8771,-1.8775,-1.8892,-1.8769,-1.8772,-1.8774,-1.9009,-1.9014,-1.9018,0,0,0,0,0,0,-1.878,-1.8787,-1.884,-1.8809,-1.8814,-1.8783,-1.8804,-1.8797,-1.8807,-1.8783,-1.8777,-1.8777,-1.8765,-1.877,-1.8834,-1.8891,-1.8774,-1.8777,-1.9004,-1.901,-1.9016,-1.9127,0,0,0,0,0,0,-1.8778,-1.8787,-1.8824,-1.8811,-1.8816,-1.8898,-1.8808,-1.8799,-1.8813,-1.8803,-1.8797,-1.8793,-1.8762,-1.8829,-1.8838,-1.8894,-1.878,-1.8999,-1.9007,-1.9014,-1.9118,-1.9136,-1.9151,0,0,0,0,0,-1.8775,-1.8856,-1.8826,-1.8834,-1.8861,-1.8902,-1.8905,-1.8867,-1.8818,-1.8856,-1.884,-1.8793,-1.8883,-1.8836,-1.8845,-1.8904,-1.8995,-1.9005,-1.9014,-1.911,-1.9132,-1.9151,0,0,0,0,0,0,-1.8879,-1.8853,-1.882,-1.8899,-1.8903,-1.8885,-1.8931,-1.8891,-1.891,-1.8901,-1.8854,-1.8853,-1.8925,-1.892,-1.8869,-1.9,-1.8931,-1.8942,-1.9001,-1.9022,-1.9038,-1.9039,-1.8784,0,0,0,0,0,-1.891,-1.8944,-1.892,-1.8992,-1.8995,-1.8963,-1.898,-1.895,-1.8953,-1.8954,-1.8944,-1.895,-1.8979,-1.9,-1.9026,-1.9116,-1.9114,-1.9161,-1.9178,-1.9192,-1.9203,-1.9252,-1.9273,-1.9049,-1.9049,-1.9048,0,0,-1.8977,-1.8967,-1.8991,-1.9013,-1.9012,-1.905,-1.8966,-1.9008,-1.9036,-1.8961,-1.9021,-1.9014,-1.9017,-1.9095,-1.9129,-1.9094,-1.9264,-1.9203,-1.9215,-1.9218,-1.9263,-1.9285,-1.9304,-1.9055,-1.9054,-1.9053,0,0,-1.9117,-1.9112,-1.9172,-1.9173,-1.9173,-1.9151,-1.9165,-1.9154,-1.9146,-1.9204,-1.9149,-1.9182,-1.9233,-1.9238,-1.9248,-1.939,-1.9348,-1.9399,-1.9488,-1.9536,-1.9554,-1.9569,-1.9621,-1.9641,-1.941,-1.9411,-1.9411,0,-1.92,-1.9253,-1.9208,-1.9255,-1.9266,-1.9198,-1.9259,-1.9263,-1.9272,-1.9282,-1.9242,-1.9305,-1.9303,-1.9382,-1.9416,-1.9425,-1.9442,-1.9401,-1.9554,-1.9569,-1.9583,-1.9633,-1.9652,-1.9417,-1.9416,-1.9416,-1.9415,0,-1.9356,-1.9393,-1.9441,-1.9451,-1.9467,-1.9521,-1.9486,-1.9508,-1.9477,-1.946,-1.9521,-1.9515,-1.9539,-1.9555,-1.9526,-1.9631,-1.9609,-1.9562,-1.9491,-1.9612,-1.9658,-1.9676,-1.9426,-1.9424,-1.9422,-1.942,0,0,-1.9563,-1.9546,-1.9565,-1.9568,-1.9563,-1.9592,-1.9643,-1.9664,-1.9686,-1.9694,-1.9737,-1.9782,-1.9738,-1.9749,-1.9719,-1.9761,-1.9876,-1.9709,-1.9709,-1.9742,-1.9993,-2.003,-2.0052,-1.9847,-1.985,-1.9853,-1.9993,0,-1.97,-1.9785,-1.9746,-1.9836,-1.9871,-1.9807,-1.9851,-1.9854,-1.9839,-1.9867,-1.9851,-1.9884,-1.9824,-1.983,-1.9868,-1.9854,-1.9926,-1.9843,-1.9888,-1.989,-1.9891,-2.0076,-2.0114,-2.0247,-2.0011,-2.0014,-2.0016,0,-1.9872,-1.9887,-1.998,-1.9968,-1.9982,-2.0022,-2.004,-2.0067,-2.0069,-2.0055,-2.0067,-2.0027,-2.0078,-2.0006,-2.0076,-2.0021,-2.0037,-2.0032,-2.0036,-2.0041,-1.9962,-2.0087,-2.0288,-2.0309,-2.0043,-2.0041,-2.0039,0,-2.0016,-2.0059,-2.012,-2.0125,-2.0113,-2.0143,-2.014,-2.0138,-2.0153,-2.0169,-2.0179,-2.0201,-2.0213,-2.0231,-2.0199,-2.015,-2.0275,-2.02,-2.0267,-2.0268,-2.0298,-2.0297,-2.0506,-2.0305,-2.0305,-2.0304,-2.0304,0,-2.0175,-2.0235,-2.0185,-2.0223,-2.0289,-2.0243,-2.031,-2.03,-2.0298,-2.0334,-2.028,-2.0315,-2.027,-2.0301,-2.0276,-2.0339,-2.0345,-2.0336,-2.033,-2.0342,-2.0344,-2.0354,-2.0345,-2.0309,-2.0308,-2.0307,-2.0306,0,-2.0348,-2.0316,-2.0379,-2.0362,-2.0359,-2.0409,-2.0395,-2.043,-2.041,-2.0457,-2.0465,-2.0436,-2.047,-2.0439,-2.0472,-2.0455,-2.0539,-2.0518,-2.0539,-2.0534,-2.0603,-2.0597,-2.0828,-2.0857,-2.0635,-2.0637,-2.0639,0,-2.0452,-2.0496,-2.0484,-2.0503,-2.0503,-2.0535,-2.0551,-2.0508,-2.0527,-2.0532,-2.0567,-2.0596,-2.0617,-2.0675,-2.0658,-2.0683,-2.0663,-2.0742,-2.0667,-2.0679,-2.0666,-2.0665,-2.067,-2.0758,-2.0761,-2.0763,-2.0765,0,-2.0641,-2.0623,-2.0647,-2.0666,-2.0685,-2.0698,-2.0707,-2.0727,-2.0683,-2.0707,-2.074,-2.0756,-2.0789,-2.082,-2.0839,-2.0837,-2.0795,-2.0788,-2.0805,-2.082,-2.0831,-2.0828,-2.0583,-2.0784,-2.0782,-2.078,-2.0779,-2.0779,-2.0784,-2.0821,-2.0818,-2.0846,-2.0848,-2.0858,-2.089,-2.0874,-2.0901,-2.0924,-2.0897,-2.0938,-2.0939,-2.0961,-2.0964,-2.0996,-2.0964,-2.0988,-2.0995,-2.1002,-2.1013,-2.0824,-2.1,-2.0999,-2.0999,-2.0998,-2.0998,0,-2.0972,-2.0966,-2.0993,-2.1006,-2.1029,-2.0985,-2.0992,-2.1015,-2.1052,-2.1055,-2.1077,-2.1116,-2.1145,-2.1129,-2.1155,-2.1184,-2.1166,-2.1192,-2.1191,-2.1192,-2.104,-2.1023,-2.1207,-2.1207,-2.1207,-2.1207,-2.1207,-2.1207,-2.1072,-2.1133,-2.1114,-2.1176,-2.117,-2.1209,-2.1217,-2.1226,-2.1229,-2.1275,-2.1298,-2.1287,-2.1283,-2.1308,-2.1333,-2.1328,-2.1341,-2.1375,-2.1364,-2.1223,-2.1202,-2.1182,-2.1167,-2.1378,-2.1378,-2.1513,-2.1514,-2.1515]},{"header":{"parameterUnit":"m.s-1","parameterCategory":1,"la1":30.2991,"la2":30.254,"lo1":-89.0895,"lo2":-89.0444,"dy":0.0017,"dx":0.0017,"nx":28,"ny":28,"refTime":"2024-12-22T09:00:00:Z","depth":0,"parameterNumber":3,"parameterNumberName":"V-component_of_WINDS"},"data":[0,0,0,0,0,0,0,0,0,0,0,0,0,0,0,0,0,0,0,0,0,0,0,0,0,0,0,0,0,0,0,0,0,0,0,0,0,0,0,0,0,0,0,0,0,0,0,0,0,0,0,0,0,0,0,0,0,0,-2.2659,-2.266,0,-2.2785,-2.2787,-2.2788,-2.2792,-2.2791,-2.2789,-2.2788,-2.2917,-2.2922,-2.2926,0,0,0,0,0,0,0,0,0,0,0,0,0,-2.2419,-2.2424,-2.2659,-2.266,-2.2662,-2.2785,-2.2787,-2.2789,-2.2793,-2.2791,-2.2789,-2.2787,-2.2915,-2.2921,-2.2927,0,0,0,0,0,0,0,0,0,0,0,0,0,-2.2532,-2.2425,-2.2658,-2.2679,-2.2682,-2.2785,-2.2787,-2.2789,-2.2793,-2.2791,-2.2788,-2.2786,-2.2913,-2.2921,-2.2928,-2.3019,0,0,-2.295,-2.2953,0,0,0,0,0,0,0,0,-2.2526,-2.2541,-2.2674,-2.2677,-2.2681,-2.2771,-2.275,-2.2866,-2.2794,-2.2751,-2.2788,-2.2785,-2.287,-2.2881,-2.291,-2.3025,-2.3031,-2.2951,-2.2955,-2.2958,-2.296,0,0,0,0,0,0,0,-2.2518,-2.2536,-2.2709,-2.2676,-2.268,-2.2681,-2.2695,-2.2772,-2.2822,-2.2754,-2.2755,-2.277,-2.2872,-2.2903,-2.2913,-2.3032,-2.295,-2.2957,-2.2961,-2.2964,-2.3229,-2.3232,0,0,0,0,0,0,-2.2506,-2.2529,-2.2705,-2.2713,-2.2596,-2.2687,-2.2702,-2.2744,-2.2821,-2.283,-2.2772,-2.277,-2.2891,-2.2904,-2.2917,-2.303,-2.2958,-2.2965,-2.2969,-2.3227,-2.323,-2.3233,0,0,0,0,0,0,-2.2501,-2.2522,-2.27,-2.2621,-2.2644,-2.2694,-2.2741,-2.2748,-2.2779,-2.2834,-2.2843,-2.2794,-2.289,-2.2907,-2.2994,-2.3034,-2.2968,-2.2975,-2.3223,-2.3228,-2.3231,-2.3255,0,0,0,0,0,0,-2.2494,-2.252,-2.2555,-2.2622,-2.2648,-2.2774,-2.2743,-2.2752,-2.2792,-2.279,-2.2858,-2.2867,-2.2889,-2.2983,-2.3001,-2.3043,-2.2981,-2.322,-2.3225,-2.323,-2.3251,-2.3259,-2.3267,0,0,0,0,0,-2.2486,-2.2557,-2.2557,-2.2578,-2.2693,-2.2777,-2.2792,-2.2817,-2.2795,-2.2831,-2.2866,-2.2865,-2.3026,-2.2992,-2.3012,-2.3057,-2.3218,-2.3224,-2.323,-2.3247,-2.3258,-2.3266,0,0,0,0,0,0,-2.2494,-2.2566,-2.2567,-2.2662,-2.2713,-2.2777,-2.2824,-2.2827,-2.2885,-2.2881,-2.2909,-2.2924,-2.3011,-2.3042,-2.3002,-2.315,-2.312,-2.313,-2.3126,-2.3136,-2.3144,-2.3135,-2.2987,0,0,0,0,0,-2.2507,-2.2569,-2.2628,-2.2706,-2.2732,-2.2773,-2.281,-2.2825,-2.2879,-2.2901,-2.2943,-2.2995,-2.3058,-2.3098,-2.3159,-2.3255,-2.327,-2.3296,-2.3304,-2.331,-2.3319,-2.3372,-2.3385,-2.3252,-2.3252,-2.3252,0,0,-2.2534,-2.2581,-2.2619,-2.2709,-2.275,-2.2814,-2.2791,-2.2859,-2.2907,-2.2911,-2.2996,-2.3028,-2.3088,-2.318,-2.3223,-2.3209,-2.3359,-2.3317,-2.3322,-2.3328,-2.338,-2.3392,-2.3403,-2.3256,-2.3256,-2.3255,0,0,-2.2617,-2.2658,-2.2728,-2.277,-2.2833,-2.286,-2.2876,-2.294,-2.2962,-2.3047,-2.3052,-2.3108,-2.3216,-2.3259,-2.3294,-2.3392,-2.3393,-2.3411,-2.3453,-2.3505,-2.3515,-2.3525,-2.356,-2.3573,-2.342,-2.342,-2.342,0,-2.2643,-2.2739,-2.2763,-2.2832,-2.2872,-2.2878,-2.2949,-2.2988,-2.3068,-2.3095,-2.3079,-2.3214,-2.3255,-2.3357,-2.3381,-2.3409,-2.3429,-2.3404,-2.3512,-2.3521,-2.3531,-2.3565,-2.3578,-2.3422,-2.3421,-2.3421,-2.3421,0,-2.2768,-2.2835,-2.2883,-2.296,-2.3005,-2.3075,-2.3109,-2.3152,-2.3162,-2.3191,-2.3278,-2.3327,-2.3398,-2.3423,-2.3434,-2.3527,-2.3517,-2.3506,-2.3476,-2.3545,-2.3578,-2.3591,-2.3424,-2.3424,-2.3423,-2.3423,0,0,-2.2861,-2.295,-2.2968,-2.3003,-2.3072,-2.3124,-2.3193,-2.3263,-2.3299,-2.3353,-2.3413,-2.3503,-2.3493,-2.3534,-2.3549,-2.3594,-2.367,-2.3578,-2.358,-2.3594,-2.3777,-2.3786,-2.3801,-2.367,-2.3673,-2.3675,-2.3772,0,-2.2952,-2.3076,-2.31,-2.3207,-2.3269,-2.3276,-2.3336,-2.3385,-2.3414,-2.347,-2.3501,-2.3565,-2.3547,-2.3571,-2.3616,-2.3651,-2.3707,-2.3644,-2.3726,-2.3729,-2.3712,-2.3818,-2.3828,-2.3917,-2.3785,-2.3787,-2.3789,0,-2.3075,-2.3133,-2.3247,-2.3308,-2.3335,-2.3389,-2.3455,-2.3508,-2.3564,-2.3581,-2.3626,-2.3637,-2.3709,-2.3675,-2.3775,-2.3732,-2.3766,-2.3788,-2.3792,-2.3802,-2.3764,-2.3831,-2.3946,-2.396,-2.3809,-2.3807,-2.3806,0,-2.3133,-2.3238,-2.3321,-2.335,-2.3424,-2.3461,-2.3494,-2.3547,-2.3587,-2.3644,-2.3671,-2.3735,-2.3771,-2.3821,-2.3848,-2.3821,-2.3947,-2.3915,-2.3963,-2.3963,-2.3991,-2.3989,-2.4114,-2.4011,-2.4011,-2.401,-2.401,0,-2.3233,-2.3302,-2.3348,-2.3398,-2.3476,-2.3502,-2.3579,-2.3611,-2.3658,-2.3715,-2.3724,-2.3777,-2.3809,-2.3867,-2.3889,-2.3969,-2.3984,-2.4001,-2.4006,-2.4001,-2.3999,-2.4025,-2.402,-2.4014,-2.4013,-2.4012,-2.4012,0,-2.3311,-2.3344,-2.3434,-2.3496,-2.3513,-2.3568,-2.3621,-2.367,-2.3698,-2.377,-2.3788,-2.3832,-2.39,-2.3932,-2.4016,-2.4031,-2.4122,-2.4122,-2.4104,-2.4106,-2.4153,-2.4149,-2.43,-2.4322,-2.4203,-2.4204,-2.4205,0,-2.3373,-2.3427,-2.3495,-2.3534,-2.3567,-2.3629,-2.3671,-2.3698,-2.374,-2.3807,-2.3849,-2.3917,-2.3974,-2.4083,-2.4122,-2.4187,-2.419,-2.4238,-2.4199,-2.4193,-2.4192,-2.4189,-2.4195,-2.4246,-2.4247,-2.4248,-2.4248,0,-2.3481,-2.3495,-2.3554,-2.3619,-2.3668,-2.372,-2.3772,-2.3803,-2.3838,-2.3885,-2.3956,-2.3999,-2.4086,-2.4154,-2.4221,-2.4254,-2.4258,-2.426,-2.4275,-2.4271,-2.4259,-2.4267,-2.4124,-2.4257,-2.4256,-2.4255,-2.4255,-2.4255,-2.3555,-2.3603,-2.3658,-2.3724,-2.3765,-2.3813,-2.3863,-2.3896,-2.3955,-2.4028,-2.404,-2.4115,-2.4169,-2.4259,-2.4295,-2.4354,-2.4342,-2.4364,-2.4369,-2.4375,-2.4378,-2.4248,-2.4366,-2.4365,-2.4365,-2.4365,-2.4365,0,-2.3664,-2.3699,-2.3759,-2.3831,-2.3883,-2.3881,-2.3938,-2.3981,-2.4047,-2.4097,-2.4152,-2.4233,-2.4299,-2.4343,-2.441,-2.4449,-2.4452,-2.4465,-2.4464,-2.4471,-2.4384,-2.4365,-2.4462,-2.4462,-2.4462,-2.4462,-2.4462,-2.4462,-2.3727,-2.3809,-2.3829,-2.3931,-2.3966,-2.404,-2.4073,-2.4117,-2.4157,-2.4247,-2.4302,-2.433,-2.4378,-2.4448,-2.4509,-2.452,-2.4545,-2.4559,-2.457,-2.4487,-2.4477,-2.4468,-2.445,-2.4564,-2.4564,-2.4653,-2.4654,-2.4654]}]]